User: anonymous   Login
Location: Le Rocchette
(44.3500°N, 7.8333°E)
Time: 13:37:26
(UTC+00:00)
Language:

Cosmos 2058 - Orbit

View from above orbital plane
View from above orbital plane
View from above satellite
View from above satellite

Ground track
Ground track

The orbit data is extracted from the following two-line orbital elements,

1 20465U 90010A   20025.16519676  .00000200  00000-0  14627-4 0  9993
2 20465  82.4875  52.1891 0014621 332.8767  27.1690 14.97957810627831
Epoch (UTC): 25 January 2020 03:57:53
Eccentricity: 0.0014621
inclination: 82.4875°
perigee height: 563 km
apogee height: 583 km
right ascension of ascending node: 52.1891°
argument of perigee: 332.8767°
revolutions per day: 14.97957810
mean anomaly at epoch: 27.1690°
orbit number at epoch: 62783

The dashed part of the orbit path shows where the satellite is in the earth's shadow,  

DLR